Location: Buckland
(65.9785°N, 161.1281°W)
Time: 05:06:57
(UTC+00:00)

Transit 4A - Pass Details

Date: 03 December 2020
Orbit: 864 x 980 km, 66.8° (Epoch: 26 January)

Event Time Altitude Azimuth Distance (km) Brightness Sun altitude
Rises 18:50:53 0° 214° (SSW) 3,662 11.1 -7.7°
Reaches altitude 10° 18:53:30 10° 209° (SSW) 2,725 10.5 -7.5°
Maximum altitude 18:59:38 51° 136° (SE) 1,223 9.1 -7.1°
Drops below altitude 10° 19:05:48 10° 63° (ENE) 2,738 10.6 -6.6°
Sets 19:08:25 0° 59° (ENE) 3,681 11.2 -6.4°
